www.pogodaiklimat.ru

Погода и климат >> Архив погоды >> Финляндия >> Котка Хаапасари


ПОГОДА в Котка Хаапасари

  • Прогноз погоды в Котка Хаапасари
  • Монитор погоды в Котка Хаапасари

АРХИВ ПОГОДЫ в Котка Хаапасари

Время (UTC), дата Ветер
(напр.,м/с)
 
Видим.   Явления Облачность Т
(С)
Тd
(С)
f
(%)
Тe
(С)
Тes
(С)
Комфортность P
(гПа)
Po
(гПа)
Тmin
(С)
Tmax
(С)
R
(мм)
R24
(мм)
S
(см)
01 9.09 В 8 40 км 5/5
[]
+17.0 +14.2 84 +16 +16 1023.5 1023.1
02 9.09 В 10 45 км 9/9
[]
+17.2 +14.2 83 +16 +16 1022.8 1022.4
03 9.09 ЮВ 7-9
{11}
30 км в посл. час дождь 6/6 2000 м
[]
+17.1 +14.5 85 +16 +16 1022.9 1022.5
04 9.09 ЮВ 7 35 км в посл. час дождь 10/4 1000 м
[]
+17.1 +14.6 85 +16 +16 1023.2 1022.8
05 9.09 В 9-12
{12}
7000 м дождь 10/0 1500 м
[]
+16.0 +15.2 95 +14 +14 1022.0 1021.6
06 9.09 В 11-13
{14}
15 км в посл. час дождь 5/1 100 м
[]
+16.3 +15.5 95 +14 +14 1021.3 1020.9 +16.0 +17.6
07 9.09 ЮВ 10 21 км 9/3 600 м
[]
+16.6 +15.3 92 +15 +15 1021.9 1021.5
08 9.09 ЮВ 6-9
{11}
14 км слаб. ливневой дождь 10/10 200 м
[]
+16.4 +15.4 94 +15 +15 1022.3 1021.9
09 9.09 ЮВ 6-8
{8}
28 км в посл. час дождь 9/8 200 м
[]
+17.1 +14.9 87 +16 +17 1021.8 1021.4
10 9.09 В 7 30 км 6/6 200 м
[]
+17.1 +15.1 88 +16 +17 1021.7 1021.3
11 9.09 ЮВ 7 29 км 8/8 200 м
[]
+16.9 +15.2 90 +16 +16 1021.7 1021.3
12 9.09 ЮВ 5-6
{7}
25 км 10/0 300 м
[]
+17.1 +15.2 89 +16 +18 1021.8 1021.4
13 9.09 ЮВ 3 21 км 10/10 300 м
[]
+17.3 +15.7 90 +17 +17 1021.6 1021.3
14 9.09 В 6 19 км 8/8 300 м
[]
+17.4 +15.7 90 +17 +17 1021.5 1021.1
15 9.09 В 5-6
{7}
17 км 1/0 300 м
[]
+17.8 +16.0 89 +17 +18 1021.4 1021.0
16 9.09 В 4 19 км 1/1 300 м
[]
+17.5 +15.8 90 +17 +17 1021.4 1021.0
17 9.09 В 4 18 км 9/9 600 м
[]
+17.1 +15.9 93 +17 +17 1021.8 1021.4
18 9.09 В 4-5
{5}
12 км 6/6 600 м
[]
+16.9 +16.1 95 +16 +16 1022.1 1021.7 +16.3 +17.9
19 9.09 СВ 4 12 км 1/1 600 м
[]
+16.6 +15.8 95 +16 +16 1022.1 1021.7
20 9.09 В 4 8000 м дымка ясно +16.4 +15.7 96 +16 +16 1022.0 1021.6
21 9.09 В 4-5
{6}
14 км ясно +16.6 +16.0 96 +16 +16 1022.0 1021.6
22 9.09 В 4 11 км 3/3
[]
+16.7 +16.1 96 +16 +16 1021.9 1021.5
23 9.09 В 5 10 км 8/8
[]
+17.1 +16.6 97 +16 +16 1021.7 1021.3
00 10.09 В 4-5
{6}
6000 м дымка 4/0
[]
+17.2 +16.6 96 +17 +17 1021.5 1021.1
01 10.09 ЮВ 6-8
{8}
16 км 4/4
[]
+17.8 +16.8 94 +17 +17 1021.3 1020.9
02 10.09 ЮВ 5 13 км 1/1
[]
+17.4 +16.5 94 +17 +17 1021.1 1020.7
03 10.09 ЮВ 4-5
{6}
14 км ясно +16.9 +16.2 96 +16 +16 1020.8 1020.4
04 10.09 ЮВ 5 17 км ясно +17.2 +16.1 93 +17 +17 1020.8 1020.4
05 10.09 ЮВ 4-5
{6}
17 км ясно +17.6 +16.0 90 +17 +18 1021.1 1020.7
06 10.09 ЮВ 3-5
{5}
19 км ясно +18.1 +15.9 87 +18 +20 1021.1 1020.7 +16.4 +18.3
07 10.09 ЮВ 4 22 км ясно +18.5 +16.0 85 +19 +21 1021.4 1021.0
08 10.09 ЮВ 4 16 км ясно +18.7 +15.8 83 +20 +23 1021.5 1021.1
09 10.09 В 5-6
{7}
21 км ясно +19.6 +16.2 81 +22 +25 комфорт 1021.6 1021.2
10 10.09 В 6-8
{8}
17 км ясно +19.5 +15.3 77 +21 +24 комфорт 1021.5 1021.1
11 10.09 В 6 20 км ясно +19.4 +16.2 82 +21 +23 комфорт 1021.5 1021.1
12 10.09 В 6-7
{8}
18 км 1/0
[]
+20.2 +16.8 81 +23 +25 комфорт 1021.2 1020.8
13 10.09 ЮВ 6 20 км ясно +20.0 +16.5 80 +22 +24 комфорт 1020.8 1020.4
14 10.09 ЮВ 8-9
{9}
21 км ясно +20.1 +16.2 78 +22 +23 комфорт 1020.4 1020.0
15 10.09 ЮВ 8-11
{12}
23 км ясно +20.2 +16.0 77 +22 +23 комфорт 1020.1 1019.8
16 10.09 ЮВ 8 23 км ясно +19.8 +16.1 79 +22 +22 комфорт 1020.2 1019.8
17 10.09 ЮВ 9 25 км ясно +20.5 +15.6 73 +23 +23 комфорт 1020.4 1020.0
18 10.09 ЮВ 7-8
{11}
23 км 3/3 2000 м
[]
+19.4 +16.1 81 +21 +21 комфорт 1020.3 1019.9 +18.1 +21.2
19 10.09 ЮВ 9 23 км 3/3 2000 м
[]
+19.8 +16.3 80 +21 +21 комфорт 1020.2 1019.8
20 10.09 ЮВ 10-12
{13}
22 км ясно +19.4 +16.1 81 +20 +20 1020.0 1019.6
21 10.09 ЮВ 9-10
{12}
24 км 4/0
[]
+19.0 +16.0 83 +19 +19 1019.7 1019.3
22 10.09 ЮВ 8-12
{12}
25 км 6/0 2000 м
[]
+19.1 +15.6 80 +20 +20 1019.7 1019.3
23 10.09 Ю 8 22 км в посл. час дождь 3/1 1000 м
[]
+19.1 +15.4 79 +20 +20 1019.4 1019.0
00 11.09 ЮВ 8-10
{12}
21 км 5/4
[]
+18.2 +15.9 86 +18 +18 1019.2 1018.8
01 11.09 ЮВ 8 24 км 9/9
[]
+18.4 +15.5 83 +18 +18 1018.8 1018.4
02 11.09 ЮВ 8 22 км в посл. час морось 9/9
[]
+18.3 +15.5 84 +18 +18 1018.3 1017.9
03 11.09 Ю 10-12
{12}
19 км 5/0
[]
+17.7 +15.6 88 +16 +16 1017.8 1017.4
04 11.09 Ю 9 17 км ясно +17.5 +15.8 90 +16 +16 1018.0 1017.6
05 11.09 Ю 9 27 км ясно +17.4 +14.6 84 +16 +16 1018.0 1017.6
06 11.09 29 км ясно +17.5 +13.4 77 1017.9 1017.5 +17.3 +19.9
07 11.09 Ю 9 28 км ясно +17.6 +13.7 78 +16 +17 1017.8 1017.4
08 11.09 Ю 9 35 км ясно +17.5 +13.7 78 +16 +17 1017.5 1017.1
09 11.09 Ю 10-11
{12}
30 км ясно +18.2 +13.4 74 +17 +18 1016.9 1016.5
10 11.09 Ю 11 30 км ясно +18.3 +12.7 70 +17 +18 1016.7 1016.3
11 11.09 Ю 10 27 км слаб. дождь 9/9 1000 м
[]
+18.1 +12.6 70 +17 +17 1016.6 1016.2
12 11.09 ЮЗ 8-11
{12}
30 км слаб. дождь 10/0 1000 м
[]
+17.2 +12.6 74 +16 +16 1016.8 1016.4
13 11.09 Ю 9-14
{16}
20 км слаб. ливневой дождь 10/0 1000 м
[]
+16.9 +13.1 78 +15 +15 1016.7 1016.3
14 11.09 Ю 11 18 км слаб. ливневой дождь 10/10 600 м
[]
+16.5 +13.3 81 +15 +15 1016.5 1016.1
15 11.09 Ю 13-17
{17}
30 км 9/5 600 м
[]
+17.3 +12.9 75 +16 +16 1015.8 1015.4
16 11.09 Ю 13 35 км 9/8 600 м
[]
+17.3 +13.6 79 +16 +16 1015.6 1015.2
17 11.09 Ю 14-18
{19}
28 км слаб. ливневой дождь 9/8 300 м
[]
+16.4 +14.2 87 +14 +14 1015.2 1014.8
18 11.09 Ю 12-17
{19}
29 км 9/9 300 м
[]
+16.5 +14.4 87 +14 +14 1015.3 1014.9 +15.5 +18.5
19 11.09 Ю 12-17
{17}
29 км 9/6 300 м
[]
+16.5 +14.5 88 +14 +14 1015.4 1015.0
20 11.09 ЮЗ 12-15
{16}
27 км в посл. час морось 9/6 300 м
[]
+16.7 +14.5 87 +15 +15 1015.0 1014.6
21 11.09 ЮЗ 12-16
{18}
27 км 6/5 300 м
[]
+16.7 +14.6 87 +15 +15 1015.1 1014.8
22 11.09 ЮЗ 13 30 км 9/9 300 м
[]
+16.7 +14.7 88 +15 +15 1015.2 1014.8
23 11.09 ЮЗ 12-15
{17}
17 км слаб. ливневой дождь 9/0 300 м
[]
+16.2 +14.8 91 +14 +14 1015.4 1015.0
00 12.09 ЮЗ 11-15
{15}
29 км 8/5 300 м
[]
+16.5 +13.7 84 +15 +15 1015.6 1015.2
01 12.09 ЮЗ 11-15
{17}
30 км 3/3 300 м
[]
+16.1 +13.2 83 +14 +14 1015.8 1015.4
02 12.09 ЮЗ 12-16
{16}
30 км 6/6 1500 м
[]
+15.9 +13.3 85 +14 +14 1015.7 1015.3
03 12.09 ЮЗ 12-15
{15}
28 км 5/0 300 м
[]
+15.8 +13.0 83 +13 +13 1015.4 1015.0
04 12.09 ЮЗ 12 30 км 3/3 300 м
[]
+15.7 +13.0 84 +13 +13 1015.2 1014.8
05 12.09 ЮЗ 12-16
{16}
30 км 5/3 300 м
[]
+15.7 +13.0 84 +13 +13 1015.2 1014.8
06 12.09 ЮЗ 13-16
{16}
30 км 8/8 2000 м
[]
+15.9 +13.0 83 +13 +13 1015.0 1014.6 +15.6 +16.9
07 12.09 ЮЗ 12 30 км ясно +16.3 +12.8 80 +14 +14 1014.8 1014.4
08 12.09 Ю 11 28 км ясно +17.1 +12.9 76 +15 +16 1014.6 1014.2
09 12.09 Ю 11-15
{15}
25 км слаб. морось 5/3 1000 м
[]
+16.7 +11.7 72 +15 +15 1014.3 1013.9
10 12.09 Ю 11 20 км слаб. ливневой дождь 10/10 1000 м
[]
+16.5 +12.2 76 +15 +15 1013.7 1013.3
11 12.09 Ю 13 21 км слаб. ливневой дождь 10/10 600 м
[]
+16.6 +12.1 75 +14 +14 1013.2 1012.8
12 12.09 ЮЗ 15-20
{20}
28 км в посл. час дождь 10/0 600 м
[]
+16.7 +12.7 77 +14 +14 1012.9 1012.5
13 12.09 ЮЗ 15 22 км 9/9 300 м
[]
+16.2 +13.4 83 +14 +14 1012.6 1012.2
14 12.09 ЮЗ 13-16
{18}
24 км 9/0 600 м
[]
+16.3 +13.4 83 +14 +14 1012.6 1012.2
15 12.09 ЮЗ 11-14
{16}
30 км 4/3 600 м
[]
+16.6 +13.1 80 +15 +15 1012.4 1012.0
16 12.09 З 14 25 км ясно +16.4 +13.2 81 +14 +14 1012.0 1011.6
17 12.09 З 15-17
{19}
21 км ясно +16.2 +13.1 82 +14 +14 1012.1 1011.7
18 12.09 З 15 21 км ясно +16.1 +13.2 83 +14 +14 1012.6 1012.2 +15.9 +17.2
19 12.09 З 13 20 км 1/1 300 м
[]
+15.9 +13.1 83 +13 +13 1012.5 1012.1
20 12.09 З 12 23 км ясно +16.0 +12.8 81 +14 +14 1012.2 1011.8
21 12.09 З 11-14
{15}
20 км ясно +16.1 +13.4 84 +14 +14 1012.1 1011.7
22 12.09 ЮЗ 11 24 км 4/4 300 м
[]
+15.8 +13.3 85 +14 +14 1012.1 1011.7
23 12.09 ЮЗ 10 22 км 1/1 300 м
[]
+15.7 +13.2 85 +14 +14 1011.8 1011.4
00 13.09 ЮЗ 10-14
{16}
21 км 5/4 300 м
[]
+15.6 +13.4 87 +13 +13 1011.1 1010.8
01 13.09 ЮЗ 9 22 км 9/4 300 м
[]
+15.7 +13.4 86 +14 +14 1010.9 1010.5
02 13.09 ЮЗ 10-14
{14}
21 км 9/3 300 м
[]
+15.7 +13.4 86 +14 +14 1010.4 1010.0
03 13.09 З 10-12
{15}
25 км 10/0
[]
+15.8 +12.3 80 +14 +14 1009.5 1009.1
04 13.09 ЮЗ 10 28 км 10/10
[]
+15.8 +12.3 80 +14 +14 1009.3 1008.9
05 13.09 ЮЗ 9 20 км слаб. морось 9/9
[]
+15.4 +13.2 87 +13 +13 1009.0 1008.6
06 13.09 З 11-13
{14}
9000 м слаб. дождь 10/10 600 м
[]
+15.0 +12.7 86 +12 +12 1008.9 1008.5 +14.9 +16.2
07 13.09 ЮЗ 12-15
{15}
16 км слаб. ливневой дождь 9/0 300 м
[]
+15.0 +12.2 83 +12 +12 1008.7 1008.3
08 13.09 ЮЗ 11-14
{15}
23 км в посл. час дождь 6/5 300 м
[]
+15.2 +12.6 84 +13 +13 1008.0 1007.6
09 13.09 ЮЗ 11-15
{17}
20 км 1/0
[]
+14.8 +12.4 86 +12 +12 1007.8 1007.4
10 13.09 ЮЗ 11 28 км 3/3 300 м
[]
+14.8 +12.4 86 +12 +12 1007.6 1007.2
11 13.09 З 7 7000 м слаб. ливневой дождь 10/10 1000 м
[]
+12.6 +10.6 88 +10 +10 1007.8 1007.4
12 13.09 З 5-6
{8}
40 км слаб. ливневой дождь 9/0 1500 м
[]
+13.3 +10.4 83 +11 +13 1007.1 1006.7
13 13.09 З 6 40 км 6/5 300 м
[]
+13.9 +11.5 85 +12 +12 1006.8 1006.4
14 13.09 З 7 35 км 9/9 1500 м
[]
+14.4 +11.0 80 +12 +12 1006.5 1006.1
15 13.09 СЗ 7-9
{10}
50 км 8/6 300 м
[]
+14.1 +11.9 87 +12 +12 1006.5 1006.1
16 13.09 СЗ 8 45 км 9/4 300 м
[]
+14.3 +10.9 80 +12 +12 1006.6 1006.2
17 13.09 СЗ 7 45 км 8/6 1500 м
[]
+14.2 +10.4 78 +12 +12 1007.2 1006.8
18 13.09 СЗ 10-13
{13}
50 км ясно +14.4 +10.3 76 +12 +12 1007.4 1007.0 +12.5 +15.4
19 13.09 СЗ 12-15
{15}
40 км ясно +14.0 +9.4 74 +11 +11 1007.7 1007.3
20 13.09 СЗ 13-17
{17}
45 км ясно +13.4 +8.2 71 +10 +10 1008.1 1007.7
21 13.09 СЗ 13-16
{17}
45 км ясно +12.9 +8.5 75 +9 +9 1008.8 1008.4
22 13.09 З 12 50 км ясно +12.7 +8.0 73 +9 +9 1009.0 1008.6
23 13.09 СЗ 12 45 км ясно +12.6 +8.4 76 +9 +9 1009.2 1008.8
00 14.09 СЗ 13-16
{16}
50 км 4/0 1500 м
[]
+12.1 +8.1 77 +8 +8 1009.6 1009.2
01 14.09 СЗ 13 50 км ясно +11.6 +8.2 80 +7 +7 1010.0 1009.6
02 14.09 СЗ 12-15
{15}
45 км ясно +11.8 +9.1 84 +8 +8 1010.2 1009.8
03 14.09 СЗ 11-13
{15}
45 км ясно +11.8 +8.8 82 +8 +8 1010.9 1010.5
04 14.09 СЗ 12 40 км ясно +11.6 +8.8 83 +7 +7 1011.1 1010.7
05 14.09 СЗ 11-13
{14}
45 км ясно +11.6 +8.7 82 +8 +8 1011.6 1011.2
06 14.09 СЗ 10-12
{14}
40 км 1/1 300 м
[]
+11.5 +8.3 81 +8 +8 1012.1 1011.7 +11.3 +14.4
07 14.09 СЗ 11-13
{13}
45 км ясно +11.7 +7.6 76 +8 +8 1012.3 1011.9
08 14.09 З 12 35 км 1/1 600 м
[]
+11.9 +7.4 74 +8 +8 1012.4 1012.0
09 14.09 З 11-13
{14}
35 км 6/0 600 м
[]
+12.5 +7.0 69 +9 +9 1012.8 1012.4
10 14.09 З 10 50 км 9/9 600 м
[]
+13.1 +7.8 70 +10 +10 1013.0 1012.6
11 14.09 З 10 40 км 5/5 1000 м
[]
+13.3 +6.2 62 +10 +10 1012.9 1012.5
12 14.09 СЗ 8-10
{13}
45 км 4/4 1000 м
[]
+13.6 +6.8 63 +11 +12 1013.0 1012.6
13 14.09 З 8-11
{15}
40 км 4/0 1000 м
[]
+13.5 +6.8 64 +11 +11 1012.9 1012.5
14 14.09 З 12 45 км 1/1
[]
+13.5 +6.6 63 +10 +10 1012.4 1012.0
15 14.09 СЗ 10-11
{14}
40 км 1/0 1000 м
[]
+13.3 +6.9 65 +10 +10 1012.8 1012.4
16 14.09 СЗ 9 45 км 5/4 600 м
[]
+13.0 +6.9 66 +10 +10 1013.1 1012.7
17 14.09 СЗ 11-12
{14}
50 км ясно +12.9 +8.0 72 +10 +10 1013.4 1013.0
18 14.09 СЗ 11 50 км 1/1
[]
+12.6 +5.7 63 +9 +9 1013.5 1013.1 +11.3 +14.4
19 14.09 СЗ 12 45 км ясно +12.4 +6.4 67 +9 +9 1013.7 1013.3
20 14.09 З 11-13
{14}
50 км 1/0 1500 м
[]
+12.2 +6.8 70 +9 +9 1013.6 1013.2
21 14.09 СЗ 10-12
{13}
50 км ясно +12.0 +6.7 70 +8 +8 1013.5 1013.1
22 14.09 СЗ 10 45 км ясно +12.0 +6.7 70 +8 +8 1013.5 1013.1
23 14.09 СЗ 7 45 км ясно +11.7 +6.4 70 +9 +9 1012.8 1012.4
00 15.09 З 6-8
{9}
50 км ясно +12.0 +6.4 69 +9 +9 1012.3 1011.9
01 15.09 З 5-7
{8}
45 км ясно +12.2 +5.9 65 +10 +10 1011.9 1011.5
02 15.09 З 5 50 км ясно +12.5 +5.3 61 +10 +10 1010.5 1010.1
03 15.09 ЮЗ 5-7
{7}
45 км 9/5 1000 м
[]
+12.9 +6.9 67 +11 +11 1008.8 1008.4
04 15.09 Ю 10-11
{11}
45 км 9/1 1000 м
[]
+13.1 +8.6 74 +10 +10 1007.4 1007.0
05 15.09 ЮЗ 7-12
{15}
9000 м дождь 10/10 600 м
[]
+11.0 +7.7 80 +8 +8 1005.5 1005.1
06 15.09 Ю 11-13
{16}
5000 м дождь 10/10 300 м
[]
+10.9 +9.3 90 +6 +6 1003.5 1003.1 +10.7 +13.1
07 15.09 ЮЗ 12-17
{17}
6000 м слаб. дождь 10/0 300 м
[]
+11.6 +10.0 90 +7 +7 1001.6 1001.2
08 15.09 Ю 12 4700 м дождь 10/10 300 м
[]
+11.7 +10.7 94 +7 +7 999.3 998.9
09 15.09 Ю 13-17
{17}
6000 м дождь 10/0 300 м
[]
+11.9 +10.7 92 +8 +8 996.7 996.3
10 15.09 Ю 11 8000 м слаб. дождь 10/10 300 м
[]
+12.4 +11.1 92 +9 +9 994.9 994.5
11 15.09 Ю 11 4600 м дождь 10/10 200 м
[]
+12.4 +11.4 94 +9 +9 992.8 992.4
12 15.09 ЮЗ 14-19
{19}
3900 м слаб. морось 10/0 200 м
[]
+13.0 +11.8 92 +9 +9 990.3 989.9
13 15.09 ЮЗ 12-17
{18}
2800 м сильн. дождь 10/0 200 м
[]
+13.0 +12.3 96 +9 +9 988.5 988.1
14 15.09 З 10-15
{16}
8000 м ливневой дождь 10/0 200 м
[]
+13.0 +12.4 96 +10 +10 986.8 986.4
15 15.09 З 15-19
{19}
30 км в посл. час морось 9/0 300 м
[]
+13.2 +9.1 76 +9 +9 986.2 985.8
16 15.09 З 10 45 км 5/5 1500 м
[]
+12.6 +8.7 77 +9 +9 987.1 986.8
17 15.09 З 14-18
{18}
45 км 1/0 600 м
[]
+13.1 +9.3 78 +9 +9 987.3 986.9
18 15.09 З 15-20
{20}
40 км 3/3 600 м
[]
+13.5 +9.7 78 +10 +10 987.3 986.9 +10.9 +13.7
19 15.09 З 15 40 км 6/6 600 м
[]
+13.2 +9.0 76 +9 +9 987.4 987.0
20 15.09 З 13 45 км 1/1 600 м
[]
+13.0 +8.6 75 +9 +9 987.6 987.2
21 15.09 З 12-15
{16}
40 км ясно +13.1 +9.0 76 +10 +10 987.8 987.4
22 15.09 З 13-15
{17}
45 км ясно +12.7 +7.7 72 +9 +9 987.6 987.2
23 15.09 З 12 45 км ясно +12.5 +8.0 74 +9 +9 987.4 987.0

 

Местоположение метеостанции Котка Хаапасари (Финляндия): широта 60.29 долгота 27.19 высота над уровнем моря 4 м.

В архиве по умолчанию представлена погода в Котка Хаапасари за последнюю неделю. Архивные данные за месяц целиком и за предыдущие месяцы, начиная с января 2011 года, Вы можете получить, выбрав интересующий диапазон дат из раскрывающегося списка и нажав кнопку "Ввод!".


*Определитесь, кто Вы:
робот инопланетянин человек

Внимание! Время в таблицах - всемирное. Для получения местного времени необходимо прибавить поправку, которая равна 1 ч.

Смотрите также архив погоды в соседних городах и на ближайших метеорологических станциях:

Погода на Острове Ранкки (Финляндия) (16 км)
Погода в Гогланде (Ленинградская область, Россия) (26 км)
Погода в Коивуниеми (Финляндия) (38 км)
Погода в Орренгрунде (Финляндия) (41 км)
Погода в Аньяла (Финляндия) (50 км)
Погода в Утти Lentoportintie (Финляндия) (68 км)
Погода в Аэропорту Утти (Финляндия) (68 км)
Погода на Эмасало (Финляндия) (87 км)
Погода в Порвоо (Финляндия) (88 км)
Погода в Килпилахти (Финляндия) (90 км)

Пояснения к столбцам:

Ветер - указаны скорость ветра в м/с - средняя за 10 мин, порывы в срок и между сроками (в фигурных скобках) и направление, откуда дует ветер: С - северный, СВ - северо-восточный, В - восточный, ЮВ - юго-восточный, Ю - южный, ЮЗ - юго-западный, З - западный, СЗ - северо-западный.
Видимость - горизонтальная дальность видимости в метрах или километрах. При видимости от 1 до 10 км при отсутствии осадков обычно наблюдается дымка, при ухудшении видимости до 1 км и менее - туман. В сухую погоду видимость может ухудшаться дымом, пылью или мглою.
Явления - указаны атмосферные явления, наблюдавшиеся в срок или в последний час перед сроком; фигурными скобками обозначены явления, наблюдавшиеся между сроками (за 1-3 часа до срока); квадратными скобками обозначены град или гололедные отложения с указанием их диаметра в мм.
Облачность - указаны через наклонную черту общая и нижняя облачность в баллах и высота нижней границы облаков в метрах; квадратными скобками обозначены формы облаков: Ci - перистые, Cs - перисто-слоистые, Cc - перисто-кучевые, Ac - высококучевые, As - высокослоистые, Sc - слоисто-кучевые, Ns - слоисто-дождевые, Cu - кучевые, Cb - кучево-дождевые. Подробнее классификацию облаков см. в Атласе облаков (PDF).
T - Температура воздуха - температура, измеренная на высоте 2 м над землей.
Td - Температура точки росы - температура, при понижении до которой содержащийся в воздухе водяной пар достигнет насыщения.
f - Относительная влажность воздуха - влажноcть воздуха, измеренная на высоте 2 м над землей.
Te - Эффективная температура - температура, которую ощущает одетый по сезону человек в тени. Характеристика душности погоды. При расчете учитывается влияние влажности воздуха и скорости ветра на теплоощущения человека.
Tes - Эффективная температура на солнце - температура, которую ощущает человек, с поправкой на солнечный нагрев. Характеристика знойности погоды. Зависит от высоты солнца над горизонтом, облачности и скорости ветра. Ночью, в пасмурную погоду, а также при ветре 12 м/с и более поправка равна нулю.
P - Атмосферное давление - приведенное к уровню моря атмосферное давление.
Po - Атмосферное давление - измеренное на уровне метеостанции атмосферное давление.
Tmin - Минимальная температура - минимум температуры воздуха на высоте 2 м над землей.
Tmax - Максимальная температура - максимум температуры воздуха на высоте 2 м над землей.
R - Количество осадков - Количество выпавших осадков за период времени, мм. При наведении курсора мыши на число - период времени, за который выпало указанное количество осадков.
R24 - Количество осадков - Количество выпавших осадков за 24 часа, мм.
S - Снежный покров - Высота снежного покрова, см. При наведении курсора мыши на число - состояние снежного покрова и степень покрытия местности в баллах.